Theta_e
323 324 324 324 325 326 326 328 326 323 320 319 321 324 326 325 322 324 324 323 325 325 322 321 319 317 316 315 315 314 314 313 313 312 312 312 311 311 311 310 310 310 309 309 309 309 308 307 306 306 305 305 305 304 304 304 304 304 304 303 303 301 298 297 297 297 297 297 297 297 297 297 297 297 297 297 297 297 297 297 297 297 297 297 297 297 297
327 326 323 324 330 333 330 330 332 330 323 321 328 332 327 326 327 326 322 323 324 323 321 319 317 316 316 315 314 314 313 312 312 311 311 311 310 310 310 310 310 309 309 309 309 308 307 306 306 306 305 305 304 304 303 303 303 303 303 303 302 300 298 297 297 297 297 297 297 297 297 297 297 297 297 297 297 297 297 296 296 296 296 296 296 296 296
325 325 323 323 328 333 330 325 325 328 327 325 329 329 327 330 329 322 320 323 323 320 318 317 316 315 315 314 314 313 313 312 311 311 310 310 310 310 310 309 309 309 309 309 308 308 307 306 306 306 305 305 304 303 303 302 302 302 302 302 301 299 298 297 297 297 297 296 297 297 297 297 297 297 297 296 296 296 296 296 296 296 296 295 295 295 295
324 323 323 322 324 327 328 327 325 326 327 327 326 324 326 330 327 320 321 324 321 318 316 315 315 314 314 313 313 313 312 312 311 310 310 310 309 309 309 309 309 309 308 308 308 307 307 307 306 305 305 304 304 303 302 301 301 301 301 301 300 298 297 297 297 297 297 297 297 297 297 297 297 297 297 296 296 296 296 296 296 296 296 296 295 295 295
325 324 324 322 322 323 324 323 321 320 322 323 323 323 322 323 322 321 323 323 320 317 315 314 314 314 313 313 313 313 312 311 311 310 310 309 309 309 309 309 308 308 308 307 307 307 307 307 306 305 304 304 304 303 302 301 299 299 300 299 298 297 297 297 297 297 297 297 297 297 297 297 297 297 297 297 296 296 296 296 296 296 296 295 295 294 294
325 324 323 320 321 324 322 317 314 317 320 321 322 323 321 319 320 321 322 320 317 315 315 315 314 314 313 313 313 313 312 311 311 310 309 309 309 309 309 308 308 308 307 307 307 306 306 306 305 305 304 304 303 303 301 300 298 298 298 298 298 297 297 297 297 297 297 297 297 297 297 297 297 297 297 297 297 297 296 296 296 295 295 294 293 293 293
326 325 323 320 323 326 321 315 312 313 316 318 317 317 316 316 318 319 320 318 316 315 315 315 314 314 313 313 313 313 312 312 311 310 309 309 309 309 309 308 308 308 307 307 307 306 305 305 305 304 304 303 303 302 301 300 298 298 298 298 298 297 297 297 297 297 297 297 297 297 297 296 296 296 296 296 296 296 296 296 295 294 293 293 293 293 293
324 326 324 321 322 320 315 313 313 313 315 316 318 319 317 314 315 317 317 316 315 315 314 314 314 314 313 313 313 313 312 311 311 310 309 309 309 309 308 308 307 307 307 307 306 306 305 305 304 304 304 303 302 302 301 300 299 298 298 298 298 298 297 297 297 297 297 297 297 297 297 296 296 296 295 295 296 296 296 295 294 293 293 293 292 292 292
320 324 324 320 320 321 318 316 315 315 316 319 324 327 320 313 313 316 315 315 315 314 313 313 313 312 312 311 311 311 311 311 310 310 309 309 309 309 308 307 307 306 306 306 306 305 305 304 304 303 303 302 302 302 301 300 299 299 298 298 298 298 298 298 297 298 297 297 297 296 296 296 296 295 295 295 295 295 295 294 293 293 293 293 292 292 292
318 322 324 323 325 329 327 322 317 314 314 316 322 328 322 313 312 314 315 315 314 313 312 312 311 312 312 311 310 310 310 310 310 310 309 309 309 308 307 307 306 306 306 306 305 305 304 304 303 303 302 302 302 301 301 300 299 299 299 298 298 298 298 298 298 298 297 297 297 296 296 296 295 295 295 295 295 295 294 294 294 294 294 293 292 292 292
318 325 330 328 328 329 327 324 319 314 312 312 316 326 326 316 311 314 315 314 313 312 312 311 311 312 314 312 309 308 309 310 310 310 309 309 308 307 306 306 306 306 306 305 305 304 304 303 303 302 302 302 301 301 300 300 299 300 300 299 298 298 298 298 298 298 298 297 297 297 296 296 295 295 295 295 295 295 294 294 294 294 294 294 293 292 292
321 326 331 327 324 323 320 320 318 315 313 313 317 328 329 316 311 314 314 313 313 312 311 311 312 313 314 311 308 308 309 310 309 309 309 308 307 306 306 306 306 305 305 305 304 304 303 303 302 302 302 301 301 300 300 300 299 299 300 300 299 298 298 298 298 298 298 297 297 297 297 296 295 296 295 294 294 294 294 294 294 294 294 294 293 293 292
323 327 329 324 322 323 319 317 317 314 313 316 323 331 326 314 312 315 314 313 313 311 311 312 312 312 312 310 308 308 310 309 309 309 308 307 306 305 305 305 305 305 305 304 304 303 303 302 302 302 301 301 300 300 300 300 299 299 300 300 300 299 298 298 298 298 298 298 297 297 297 296 296 296 295 295 294 294 294 294 294 294 294 294 294 293 293
321 325 328 323 321 320 318 316 314 312 317 326 327 322 316 312 313 314 313 312 312 311 311 312 311 310 311 309 308 308 309 309 309 308 307 306 305 304 304 304 304 304 304 303 303 303 302 302 302 301 301 300 300 300 300 300 299 299 299 300 300 299 298 298 298 298 298 298 297 297 297 297 296 296 296 295 294 294 294 294 294 294 295 294 294 294 293
319 322 324 323 322 318 315 315 315 315 321 326 319 311 311 313 314 313 313 312 311 311 311 311 310 310 310 308 308 308 308 309 308 307 306 306 305 304 304 304 304 304 303 303 302 302 302 302 301 301 300 300 300 300 300 299 299 299 298 299 299 300 299 298 298 298 298 298 298 297 297 297 296 296 296 295 294 294 294 294 294 295 294 294 294 294 293
322 326 325 324 321 315 313 316 317 317 318 317 313 311 312 313 313 313 312 311 311 311 310 310 310 310 309 308 307 307 308 308 307 306 306 305 305 304 304 304 304 304 303 302 302 301 301 301 301 301 300 300 300 300 299 299 299 299 298 298 299 299 299 298 298 298 298 298 298 297 297 297 296 296 296 295 295 294 294 294 294 295 295 294 294 294 293
319 323 323 319 313 310 311 314 314 314 315 314 313 314 313 312 313 313 311 310 310 310 310 310 310 309 308 307 307 307 307 307 306 306 305 305 304 304 303 303 303 303 302 302 301 301 301 301 301 300 300 300 300 299 299 299 299 299 298 298 299 299 298 298 298 298 298 298 297 297 297 297 296 296 296 295 295 294 294 294 295 295 295 295 294 294 294
314 314 314 312 310 310 311 313 312 313 314 313 313 314 314 312 313 312 311 310 310 309 310 310 309 308 307 307 307 307 306 306 306 305 305 304 304 303 303 302 302 302 301 301 301 301 301 300 300 300 300 300 299 299 299 299 299 299 298 298 298 298 298 298 298 298 298 297 297 297 297 297 296 296 296 295 295 295 294 295 295 295 295 295 295 295 295
317 317 313 310 310 309 309 312 312 312 313 313 312 313 314 312 312 311 310 310 309 309 310 310 308 307 307 307 307 306 306 306 305 305 304 303 303 303 302 302 301 301 301 301 301 301 300 300 300 300 300 300 299 299 299 299 299 299 298 298 299 299 298 298 298 298 298 298 297 297 297 297 296 296 296 296 295 295 295 295 295 295 295 295 295 295 295
316 316 311 308 308 308 308 311 312 312 312 312 311 312 312 311 311 311 310 309 309 309 310 310 308 307 307 307 306 305 305 305 305 304 304 303 303 302 302 301 301 301 301 301 301 300 300 300 300 300 300 300 299 299 299 299 298 298 298 299 299 299 298 298 298 298 298 298 297 297 297 296 296 296 296 296 296 295 295 295 295 295 295 296 296 296 295
312 312 309 308 310 310 308 308 310 311 312 312 311 311 311 310 310 310 309 309 309 309 309 309 308 307 307 307 306 305 305 305 304 304 303 303 303 302 302 302 301 301 301 301 300 300 300 300 300 299 299 299 299 299 299 299 298 298 298 298 298 298 298 298 298 298 298 298 297 297 297 296 296 296 296 296 296 295 295 295 295 295 296 296 296 296 295
317 315 311 311 315 316 310 307 309 310 310 311 310 309 309 309 309 309 308 308 309 309 309 309 308 307 306 306 305 305 305 304 304 303 303 303 303 302 302 302 301 301 301 301 301 301 300 300 300 299 299 299 299 299 299 299 298 298 298 298 298 298 298 298 298 297 297 298 297 297 297 296 296 296 296 296 296 295 295 295 295 296 296 296 296 296 295
319 314 310 309 312 312 308 307 309 309 309 310 310 309 309 309 309 309 308 308 308 309 309 309 309 308 306 306 305 304 304 304 304 303 303 303 303 302 302 302 301 301 301 301 301 301 300 300 300 299 299 298 299 298 298 298 298 298 298 299 298 298 298 298 298 297 297 297 297 297 296 296 296 296 296 296 295 295 295 295 296 296 296 296 296 296 295
314 311 310 310 311 310 308 308 309 308 308 309 309 308 308 308 308 308 308 308 308 308 308 308 308 308 307 306 306 304 304 304 304 303 303 303 303 302 302 302 301 301 301 301 301 301 300 300 300 299 299 298 298 298 298 298 298 297 297 297 297 297 298 298 297 297 297 297 297 297 296 296 296 296 296 295 295 295 295 296 296 296 296 296 296 296 295
312 311 310 311 311 311 309 308 308 308 308 309 308 308 308 308 308 308 308 308 309 308 307 307 307 307 307 306 305 305 304 304 303 303 303 303 302 302 302 301 301 301 301 301 301 301 300 300 300 300 299 299 299 299 299 299 299 297 295 294 295 296 297 298 297 296 296 296 297 297 296 296 296 296 295 295 295 295 295 296 296 296 296 296 295 295 295
312 311 310 310 310 309 308 308 307 307 308 308 308 308 307 307 307 308 308 308 308 308 307 306 306 306 306 305 305 304 304 304 303 303 303 302 302 301 301 301 301 301 301 301 301 301 300 300 300 300 299 299 299 299 299 299 299 298 296 295 294 295 298 298 297 296 296 296 296 297 296 295 295 295 295 295 295 295 295 296 296 296 296 295 295 295 295
311 311 311 309 307 307 308 308 308 307 307 308 307 307 307 307 307 307 308 308 307 307 307 306 306 305 305 304 304 304 304 304 303 303 302 302 301 300 300 301 301 301 301 301 301 300 300 300 300 300 300 299 299 299 299 299 299 298 297 296 295 295 297 297 296 296 297 297 296 296 296 296 296 296 296 296 295 295 295 295 296 296 296 295 295 295 295
310 311 311 310 308 307 308 308 308 308 307 307 307 307 306 307 307 307 307 306 306 306 306 306 306 305 304 304 304 304 304 304 303 302 302 301 300 299 300 300 300 301 301 300 300 300 301 300 300 300 299 299 299 299 299 299 299 298 297 296 295 295 296 296 296 296 297 297 297 296 295 295 296 296 296 296 296 296 295 295 295 296 295 295 295 295 295
310 310 311 311 310 309 308 308 308 307 307 307 307 307 306 306 306 306 306 305 305 305 305 305 305 305 304 304 304 303 304 304 303 302 301 301 301 300 299 299 299 300 300 299 299 299 300 301 301 300 299 299 299 299 299 299 299 298 298 297 296 295 295 295 295 295 295 296 297 296 295 295 296 296 296 296 296 296 296 295 295 296 295 295 295 295 295
309 310 310 310 309 309 308 307 307 307 307 307 307 306 306 306 305 305 305 305 305 305 304 304 304 304 304 304 303 303 303 302 302 302 301 301 301 300 299 298 299 299 299 298 297 297 298 300 301 300 299 299 300 300 299 299 299 299 298 297 296 295 295 295 295 295 295 296 296 295 294 295 296 295 295 296 296 296 296 295 295 295 295 295 295 295 295
309 309 310 309 308 308 308 307 306 306 306 306 306 306 305 305 305 305 305 305 305 305 304 304 304 304 304 303 302 302 302 302 301 302 301 301 301 300 299 298 299 299 298 298 297 296 296 298 299 300 299 299 300 300 300 300 299 298 298 297 296 296 296 296 296 295 295 295 295 295 294 295 296 295 295 295 296 296 296 296 295 295 295 295 295 295 295
309 308 309 309 308 308 307 307 306 306 305 305 305 305 305 305 305 305 305 305 305 305 305 304 304 304 304 303 302 302 302 302 302 301 301 301 301 300 299 298 298 298 297 297 297 298 297 297 297 298 298 298 298 299 300 300 299 298 297 297 297 296 296 296 296 296 295 295 295 295 295 295 295 295 295 295 295 296 296 295 295 295 295 295 295 295 295
308 307 307 308 307 307 306 306 306 306 305 305 305 305 305 305 305 305 305 305 305 305 305 304 304 304 304 303 302 302 302 302 301 301 301 301 300 300 299 298 297 297 297 297 298 298 298 297 298 297 297 297 297 297 299 300 299 298 297 297 297 297 297 297 297 296 296 295 295 294 294 295 295 295 295 295 295 295 295 295 295 295 295 295 295 295 295
309 309 308 308 308 307 306 305 305 305 305 305 305 305 305 305 305 305 305 305 305 305 305 304 304 304 303 303 303 303 302 302 301 301 301 300 299 299 298 297 297 297 298 298 298 298 299 299 299 298 297 297 297 297 298 300 299 298 297 297 297 297 297 297 297 296 296 295 295 294 294 295 295 295 295 295 295 295 295 295 295 295 295 295 295 295 294
310 309 309 308 308 307 306 305 305 305 305 305 305 305 305 305 305 305 305 305 305 305 304 304 304 304 303 303 302 302 302 301 301 300 299 299 299 298 298 297 298 298 299 299 299 299 299 299 299 298 297 297 297 297 297 298 299 298 297 297 297 297 298 297 297 297 296 295 295 295 295 295 295 295 295 295 295 295 295 295 295 294 294 294 295 295 294
309 309 308 307 307 307 306 306 306 306 306 305 305 305 305 305 305 305 305 305 305 305 304 304 303 302 302 301 300 300 300 299 299 299 298 298 298 298 298 298 299 299 299 299 299 299 299 299 299 298 297 297 297 296 296 296 297 297 296 297 297 298 297 297 297 297 296 295 295 295 295 295 295 295 295 295 295 295 295 295 295 294 294 294 294 294 294
309 308 308 307 307 307 307 307 306 306 306 306 305 306 305 305 305 305 305 305 305 304 304 303 302 301 300 299 298 298 298 298 298 299 299 298 298 298 298 299 299 299 299 299 299 299 299 298 297 296 296 296 297 296 296 296 296 296 296 297 297 298 297 297 297 297 296 295 295 295 295 295 295 295 295 295 295 295 295 295 295 294 294 293 293 293 293
308 308 308 308 307 307 307 307 307 307 306 306 306 306 306 305 306 306 305 305 304 303 302 302 301 300 299 299 299 299 298 298 298 299 299 298 298 299 299 299 299 299 299 299 299 299 299 298 298 297 297 297 296 296 296 296 296 295 296 297 297 297 298 297 297 297 296 296 295 295 295 295 296 295 295 295 295 295 295 295 295 294 294 294 293 293 292
308 308 308 308 307 307 307 307 307 307 306 306 306 306 305 305 305 305 305 304 303 302 301 301 300 299 299 299 299 299 298 298 299 299 299 298 298 299 299 299 299 299 299 299 299 299 298 298 299 298 298 298 297 297 297 297 296 295 295 296 296 297 297 297 297 297 296 296 295 295 295 295 295 295 295 295 295 295 295 295 295 294 294 294 294 293 292
308 308 308 308 307 307 307 307 307 307 306 306 306 305 304 303 303 303 303 302 301 301 301 300 299 299 299 299 299 298 298 298 299 299 299 299 298 298 299 299 299 299 299 299 299 299 298 299 299 300 299 299 299 298 298 298 297 297 296 295 296 297 297 297 297 297 296 296 296 295 295 295 295 295 296 295 295 295 295 295 295 294 294 294 294 294 293
308 308 308 307 307 307 307 307 306 306 306 306 306 305 303 303 302 301 301 301 301 300 300 300 299 299 299 298 298 298 298 298 298 299 299 298 298 298 299 299 299 299 299 299 299 299 298 299 300 300 300 300 300 299 298 298 298 298 297 296 296 297 297 297 297 297 296 296 296 296 295 295 295 295 296 295 295 295 295 295 295 294 294 294 294 294 293
308 308 308 307 307 307 307 306 306 306 306 306 306 304 303 302 302 301 301 301 300 300 300 300 299 299 298 298 298 298 298 298 298 298 298 297 297 298 298 298 298 298 299 298 298 298 299 299 300 300 300 300 300 300 299 298 298 299 299 297 296 296 297 297 297 297 297 296 296 296 296 296 296 296 296 295 295 295 295 295 295 294 294 294 294 294 294
307 307 307 307 307 307 306 306 306 306 306 305 305 303 302 302 301 301 301 300 300 300 300 299 299 298 298 298 298 298 298 298 298 298 298 297 297 297 297 296 296 297 297 297 297 297 299 300 300 300 300 300 300 300 299 298 298 298 299 298 297 296 296 296 296 297 297 296 296 296 296 296 296 296 296 295 295 295 295 295 295 294 294 294 294 294 294
307 307 307 307 307 306 306 306 306 306 305 304 303 302 302 301 301 301 301 300 300 299 299 298 298 298 298 298 298 298 298 298 298 298 298 297 297 297 297 296 296 296 296 296 297 298 299 300 300 300 300 300 300 300 299 298 297 298 298 298 298 297 296 296 296 296 296 297 296 296 296 296 296 296 296 296 295 295 295 295 295 294 294 294 294 294 294
307 307 306 306 306 305 305 306 305 305 305 303 302 302 302 302 301 301 301 300 299 299 298 298 298 298 299 299 299 299 299 299 298 298 298 298 298 298 297 296 296 296 295 295 297 298 300 300 300 300 300 300 299 299 299 298 298 298 298 298 298 298 297 297 296 296 296 297 297 296 296 296 296 296 296 296 296 295 295 295 295 294 294 294 294 294 294
307 306 306 306 306 305 305 305 304 304 303 302 302 302 302 301 301 301 300 300 300 300 300 300 300 300 300 300 300 300 300 300 300 299 299 299 298 297 297 296 296 296 295 295 296 298 299 300 300 300 300 300 300 299 299 299 298 298 298 298 298 298 298 298 297 296 296 296 297 297 296 296 296 296 296 296 296 295 295 295 295 294 294 294 294 294 294
307 306 306 306 306 305 304 303 303 303 303 302 302 302 302 301 301 301 301 301 301 301 301 301 301 300 301 301 301 301 301 301 300 300 300 300 299 299 298 297 296 296 295 296 296 298 299 300 300 300 300 300 300 300 300 299 298 298 298 298 298 298 298 298 298 297 296 296 296 297 297 297 296 296 296 296 296 295 295 295 295 294 294 294 294 294 294
307 307 306 306 306 305 304 302 302 302 302 302 302 302 302 301 301 301 301 301 301 301 302 301 301 301 301 301 301 302 302 302 301 301 300 300 299 299 298 297 297 296 296 296 296 297 298 299 299 300 300 300 300 300 300 299 298 298 298 298 298 298 298 298 298 298 297 296 296 297 297 297 296 296 296 296 295 295 295 295 294 294 294 294 294 294 294
306 306 306 306 306 305 303 303 303 303 302 302 302 302 301 302 301 301 301 301 301 301 302 302 302 302 302 302 302 302 302 302 302 302 300 299 299 299 298 298 298 297 296 296 296 296 297 298 299 300 300 300 300 300 300 299 298 298 298 298 298 298 298 298 298 298 296 295 296 296 297 297 297 297 296 296 296 295 294 294 294 294 294 294 294 294 294
306 306 305 305 304 303 303 303 303 302 302 302 302 302 301 302 302 302 301 301 301 301 302 302 302 302 302 302 302 302 302 302 302 302 301 300 300 300 301 300 299 297 296 296 296 296 297 299 300 300 301 301 301 301 300 299 298 298 298 298 298 298 298 298 297 296 295 295 296 297 297 297 297 297 296 296 296 294 293 293 293 294 294 294 294 294 294
305 305 304 304 303 303 303 303 302 302 302 302 302 302 302 302 302 302 302 301 301 301 302 302 302 302 302 302 302 302 302 302 302 302 301 301 301 301 301 301 300 299 297 296 296 297 298 299 300 300 301 301 301 301 300 299 299 299 299 299 298 298 298 297 295 294 294 295 296 297 297 297 297 297 297 297 296 294 293 293 294 294 294 294 294 293 293
304 304 303 303 303 303 303 302 302 302 302 302 302 302 302 302 302 302 302 302 302 302 302 302 302 302 302 302 302 302 302 302 302 302 301 301 301 301 301 302 301 301 300 299 299 299 299 299 300 300 300 301 301 301 300 300 300 299 298 297 297 296 296 295 293 292 292 294 296 297 297 297 297 297 297 296 295 294 293 293 293 293 293 293 293 293 292
Wind_Speed
4 6 5 3 4 4 3 5 4 4 7 10 10 6 6 8 6 5 10 15 14 14 17 17 16 16 17 18 22 26 27 28 29 29 30 31 30 30 30 29 29 27 25 23 21 19 17 18 19 20 20 19 19 19 19 18 17 16 15 14 15 17 20 21 20 19 19 19 20 20 20 20 20 20 20 21 21 22 22 23 24 24 24 24 25 25 26
5 7 7 2 7 6 5 5 4 2 4 6 6 5 5 6 3 4 14 15 8 9 13 13 15 20 23 25 26 27 27 28 30 31 31 31 31 31 31 30 29 27 25 23 21 20 19 20 20 21 20 19 19 19 18 17 15 14 14 14 15 17 20 21 21 20 20 20 20 20 21 21 21 21 21 21 21 22 23 23 24 24 24 24 25 26 26
6 7 9 5 7 9 6 5 6 6 5 4 4 4 5 6 5 6 12 10 2 3 10 14 19 25 27 26 26 26 27 29 31 31 31 31 31 31 31 30 29 27 25 23 22 21 21 21 21 21 20 19 19 19 18 17 15 14 13 14 15 17 19 21 21 21 21 21 21 21 21 21 21 21 21 21 22 22 23 24 24 24 24 25 26 27 27
4 4 6 6 4 10 9 5 6 5 3 3 2 2 3 6 10 11 10 7 4 6 13 17 20 25 26 24 25 27 28 31 33 32 31 31 32 32 31 30 29 27 26 24 23 22 21 21 21 21 20 20 19 19 18 17 16 15 14 15 17 19 21 21 22 22 22 22 22 21 21 21 21 21 22 22 23 23 24 24 25 25 26 26 27 28 29
3 4 2 5 3 7 4 1 2 1 1 3 3 0 0 7 14 12 7 6 8 12 16 18 18 21 23 26 29 31 30 30 31 32 32 32 32 32 31 30 29 27 26 24 23 22 21 21 21 20 20 20 18 18 18 18 18 18 18 19 21 21 22 23 23 23 22 22 22 21 21 21 21 21 22 23 23 24 24 25 25 26 27 28 29 30 31
4 5 2 2 1 3 3 3 2 5 4 4 5 3 2 4 5 5 4 7 12 15 17 19 19 21 25 30 34 36 37 36 32 31 32 33 32 31 30 29 28 27 26 24 22 21 21 22 22 20 20 19 18 18 18 18 20 22 23 23 23 23 23 23 23 23 22 22 22 22 21 21 21 21 22 23 23 24 24 25 26 27 29 30 30 31 31
4 2 2 2 3 5 4 5 2 4 5 8 8 5 4 3 2 4 9 12 16 17 17 20 22 23 27 32 34 36 37 38 37 36 34 34 33 31 30 29 28 27 26 24 22 22 22 22 22 21 20 19 18 18 18 19 21 24 24 23 23 23 24 24 23 23 22 22 22 22 22 22 22 23 23 23 23 23 24 25 27 29 30 31 31 32 32
3 2 3 3 4 4 4 6 3 4 7 9 8 4 4 5 2 5 11 13 13 16 20 23 25 26 28 27 27 30 32 34 38 39 37 35 33 30 29 29 29 27 26 24 23 22 23 23 22 21 20 19 19 18 17 19 21 22 22 22 23 23 23 23 23 23 23 23 23 23 23 23 23 23 23 23 23 23 24 25 28 30 32 33 33 33 34
2 4 2 1 3 4 3 2 2 5 5 6 7 3 2 4 3 4 13 14 13 17 22 26 29 30 25 16 14 23 29 32 36 37 36 34 29 26 28 29 28 27 25 23 23 23 23 23 22 21 20 19 19 19 18 18 20 20 21 21 22 22 22 22 22 22 22 22 23 23 23 23 24 24 24 24 23 23 24 25 28 31 34 35 35 35 35
2 4 2 1 2 3 5 5 7 7 6 7 8 5 1 4 3 8 15 15 16 19 23 28 30 27 18 7 9 22 30 32 35 35 32 29 25 25 29 30 28 27 25 24 24 23 23 23 22 20 19 19 19 19 18 18 19 19 19 20 21 21 20 20 20 21 21 22 22 22 23 24 24 25 25 24 24 23 24 26 28 31 34 35 35 36 36
2 4 3 3 3 4 6 7 7 8 9 9 6 4 2 5 8 15 18 17 19 23 28 33 30 19 10 6 12 26 34 35 36 35 32 28 26 28 30 28 28 28 26 25 24 23 23 24 22 20 19 18 19 19 18 17 17 18 18 18 20 20 19 18 18 19 20 21 22 22 23 24 24 25 25 25 24 23 24 25 28 30 32 34 35 36 37
3 4 3 3 2 3 4 4 6 10 11 7 6 2 5 8 17 24 24 23 26 29 32 33 24 12 9 13 22 33 38 37 36 35 32 31 32 30 29 27 27 28 26 25 25 24 24 23 22 20 18 18 18 19 18 17 17 17 16 16 18 18 17 17 17 17 18 19 21 21 22 23 23 24 25 24 23 23 24 25 27 29 31 33 35 36 38
3 4 2 2 3 4 4 4 12 15 10 5 4 4 7 16 26 30 30 30 31 34 34 29 17 5 8 23 36 41 40 39 38 35 33 33 32 29 28 28 28 27 26 26 25 25 24 23 21 20 18 17 18 18 17 17 16 16 15 14 14 16 16 15 15 16 17 17 19 20 20 21 22 23 24 24 24 24 24 25 26 28 30 32 33 36 38
3 3 2 0 3 4 3 7 12 13 7 3 5 4 11 28 33 31 32 33 34 37 35 26 15 10 18 33 42 42 42 42 39 36 36 35 31 29 30 29 28 28 28 26 25 24 23 22 21 20 19 18 17 17 17 16 15 14 14 13 12 13 14 15 14 14 15 16 17 18 18 19 21 22 23 24 24 24 24 25 26 28 30 32 33 35 37
3 2 2 2 2 4 12 14 8 5 4 4 5 7 16 31 36 34 34 35 35 38 34 24 20 23 33 41 42 41 42 42 39 39 39 36 33 33 32 30 28 27 27 25 24 23 23 22 22 21 20 19 18 17 16 15 13 13 13 12 12 12 12 13 13 13 13 14 15 16 16 18 19 21 22 23 23 24 25 25 27 29 31 32 33 35 37
4 2 2 4 3 5 12 11 3 4 4 3 7 15 19 25 30 33 34 34 35 37 34 29 30 35 41 44 42 41 42 41 40 41 39 35 34 34 32 29 27 26 26 25 24 24 23 22 21 20 20 20 18 16 15 14 12 12 12 12 13 13 12 11 11 11 11 12 13 14 15 16 18 20 21 22 22 24 25 26 27 29 31 33 35 37 39
3 3 5 5 3 4 6 4 1 6 8 3 6 18 25 29 31 32 34 35 35 35 34 34 37 41 44 44 42 42 42 42 42 41 36 34 34 32 30 28 27 26 27 26 26 26 24 21 20 19 19 19 18 16 14 13 12 11 12 12 13 13 11 10 9 9 9 10 12 14 14 15 16 19 20 21 22 24 25 26 28 30 31 33 35 37 39
2 1 1 1 2 1 3 3 2 9 11 7 7 15 25 33 35 35 37 38 36 36 36 38 40 43 45 44 41 41 42 42 42 39 35 34 33 32 30 30 29 29 28 27 27 26 23 21 19 18 18 18 18 16 14 13 12 11 11 10 11 11 10 8 8 7 7 8 10 13 13 14 15 18 19 20 21 23 24 25 27 29 31 33 35 37 39
3 1 2 2 2 2 5 6 7 9 10 10 11 15 23 31 34 35 38 39 37 37 38 40 42 44 45 44 42 41 42 42 41 38 36 35 34 32 31 31 31 30 29 27 26 25 22 21 20 19 18 17 17 16 14 13 12 11 10 9 10 10 9 8 7 6 5 7 9 11 13 13 15 16 18 19 20 22 24 25 26 28 30 33 35 36 38
2 2 2 2 4 4 6 8 9 11 12 13 14 17 24 30 32 33 37 39 38 38 38 41 44 45 44 44 43 42 41 41 40 38 37 37 35 33 31 32 32 30 28 27 25 24 23 22 20 19 18 17 17 16 14 12 12 10 9 9 8 8 7 6 6 5 5 5 7 10 11 12 14 15 17 18 20 21 23 24 25 27 29 32 33 35 36
1 2 2 5 5 2 2 6 10 13 14 15 17 20 25 30 32 33 36 37 38 38 39 42 46 45 43 44 45 43 42 42 41 39 38 37 36 34 33 32 30 29 28 27 26 25 23 21 19 18 18 17 16 15 13 11 10 9 9 9 7 7 6 5 5 5 4 4 5 8 10 11 13 15 17 18 19 20 21 23 24 25 27 30 31 32 34
2 3 6 8 4 1 3 8 12 15 15 17 20 24 28 31 33 35 37 36 36 37 39 42 45 45 43 43 44 43 43 42 41 39 39 38 36 35 33 30 28 28 28 27 26 25 22 20 18 17 16 16 15 13 11 9 7 7 8 8 7 7 6 4 4 5 4 3 4 6 9 10 13 15 17 17 18 19 20 21 22 23 25 27 30 31 32
3 6 13 12 4 4 9 13 15 17 17 18 23 27 30 33 35 38 39 39 37 38 39 41 44 45 45 43 43 43 42 41 39 39 39 38 36 35 33 30 29 29 27 25 25 24 22 20 18 16 16 17 15 12 10 8 7 6 7 7 5 5 5 4 5 4 3 3 4 6 9 11 13 14 15 16 17 18 19 20 21 21 23 25 27 29 30
1 8 19 14 3 5 15 17 16 18 19 20 24 28 30 33 35 37 39 39 39 40 41 41 42 44 45 44 43 43 41 39 39 40 38 35 34 32 31 30 31 29 26 25 26 24 22 20 18 16 17 17 15 13 11 9 8 7 6 6 6 5 5 5 5 4 3 3 4 5 9 12 12 13 14 15 16 17 18 19 19 20 21 23 25 27 28
2 11 18 12 5 11 18 17 16 18 18 19 23 28 30 32 35 36 37 37 37 38 40 40 39 41 44 44 43 43 41 39 38 39 37 33 31 31 31 31 31 29 26 26 25 23 21 20 18 17 16 16 15 13 10 8 7 7 6 5 6 6 5 5 5 4 3 5 5 6 9 11 10 10 12 13 15 16 17 17 18 19 20 22 24 25 26
7 15 17 12 12 19 21 18 17 18 18 18 22 26 29 31 33 35 35 36 36 37 38 38 37 38 41 42 42 42 41 38 36 37 35 33 31 32 32 31 30 28 27 26 24 22 21 20 18 17 16 15 14 12 10 8 6 5 5 5 5 6 6 5 5 4 5 6 6 6 8 9 10 10 11 12 13 14 15 16 17 18 19 21 22 24 25
15 20 19 15 15 20 21 18 18 20 19 18 21 26 29 30 32 33 33 33 34 35 35 36 36 37 37 38 39 41 40 37 36 36 35 32 31 31 31 29 28 28 27 25 24 23 21 19 19 18 16 15 13 12 10 7 5 4 5 5 5 7 7 6 5 4 5 6 7 7 8 8 9 10 10 11 12 13 14 16 17 18 19 20 22 23 24
20 21 16 9 13 21 22 17 18 21 21 19 22 26 29 30 31 31 32 32 33 33 33 35 37 37 36 36 37 39 37 36 37 37 34 31 29 28 28 27 27 27 26 25 25 24 22 20 19 18 16 15 14 13 11 9 7 5 4 5 6 8 8 6 4 3 4 4 6 7 7 7 8 9 9 10 11 12 13 15 16 17 18 19 21 22 23
22 20 10 5 14 23 22 19 21 24 23 22 23 26 29 30 31 31 31 32 33 34 34 35 36 37 38 37 38 39 38 38 38 37 33 29 28 26 25 26 25 25 24 24 24 25 24 22 20 18 16 15 14 13 12 10 8 6 4 4 6 7 7 5 3 3 3 2 3 5 6 6 7 8 9 9 10 11 13 15 16 16 17 18 19 20 21
19 15 9 10 18 23 21 22 25 26 25 26 27 27 29 30 30 30 32 33 34 35 35 35 35 36 37 38 39 40 40 39 37 35 31 29 27 25 25 26 26 25 23 22 21 22 23 23 22 20 18 16 14 13 12 11 9 8 6 4 6 8 7 5 3 3 2 1 2 4 5 4 5 7 8 7 8 9 11 14 15 15 15 16 18 19 21
16 12 13 17 21 20 21 24 26 25 26 28 28 28 29 30 30 31 32 33 34 35 35 36 37 36 36 36 38 39 38 36 34 32 30 28 26 25 25 27 27 25 24 21 19 17 18 21 22 21 20 18 16 15 13 12 10 10 9 7 7 8 7 5 3 2 1 1 1 3 3 2 3 6 7 7 7 8 10 12 14 14 14 14 16 18 20
17 15 17 20 20 19 20 24 26 26 27 28 28 29 30 30 31 33 33 33 35 35 35 36 37 36 34 34 36 36 35 33 32 31 30 29 26 24 25 25 25 23 21 20 18 15 14 17 18 18 18 17 17 16 16 14 12 11 10 9 9 8 7 5 2 0 1 1 0 2 1 1 2 5 6 7 8 7 8 11 13 12 12 13 14 17 19
20 19 19 20 21 20 22 24 26 28 28 28 28 29 29 30 32 33 33 33 34 35 35 35 35 35 35 36 36 35 33 32 32 31 30 28 26 25 24 23 22 21 20 19 17 14 12 12 13 14 15 14 13 16 18 17 14 12 11 11 10 9 7 6 4 2 2 2 1 0 2 2 3 5 5 7 8 6 8 11 12 11 12 12 13 15 18
16 16 19 22 21 20 22 25 27 27 27 27 28 28 29 30 32 32 32 34 35 34 34 34 35 35 37 37 36 34 33 33 33 31 29 28 27 25 23 22 21 21 20 19 16 14 12 10 10 11 13 13 12 14 17 18 16 13 11 11 11 10 9 8 6 4 3 2 2 2 4 3 4 4 5 6 6 6 8 11 12 12 12 12 12 14 16
14 15 19 22 20 19 22 26 26 25 25 26 27 28 29 30 31 31 32 34 34 34 33 33 34 36 36 35 34 33 33 33 32 30 29 28 27 24 23 22 23 22 21 19 17 15 13 11 9 9 11 12 13 13 15 17 18 15 12 12 12 11 10 9 8 5 3 3 3 4 5 5 4 4 4 5 5 5 8 11 12 13 12 12 12 13 15
14 16 20 23 21 20 22 24 25 24 24 26 27 27 27 29 30 31 32 31 30 30 32 33 35 35 33 32 32 32 31 31 31 30 29 27 25 24 24 24 24 23 22 21 19 17 15 12 10 9 10 12 13 13 14 15 16 16 14 13 13 11 10 10 9 6 4 3 5 6 6 5 4 4 5 4 3 5 8 10 12 13 13 11 11 13 14
13 14 19 23 22 21 21 22 22 22 24 25 25 24 25 28 29 29 29 28 27 29 33 35 35 33 30 29 30 30 29 29 30 29 27 26 25 26 25 25 24 23 23 22 20 17 15 13 11 9 10 11 13 14 14 13 13 14 13 13 13 12 10 11 10 8 5 5 6 8 7 5 3 3 5 4 4 5 7 9 11 13 13 12 12 13 13
13 14 18 21 21 20 20 20 21 21 23 24 22 20 21 25 27 27 27 28 29 32 34 34 31 29 29 29 29 28 28 28 29 28 27 26 27 27 26 25 25 24 23 21 18 16 15 15 14 12 10 9 11 14 14 12 12 12 13 13 13 12 10 10 11 9 7 6 8 9 7 5 4 4 5 5 5 6 8 9 10 12 13 13 13 13 14
15 15 17 19 20 20 20 19 20 21 22 23 21 19 19 22 25 27 28 29 31 33 32 31 30 30 30 30 30 29 28 28 28 28 27 26 27 27 26 26 25 24 22 20 18 17 16 16 17 15 12 9 10 13 15 13 12 11 12 14 14 12 10 9 10 10 8 7 8 9 8 7 7 6 6 6 6 8 8 9 10 11 13 14 14 13 14
16 16 17 18 20 21 20 19 18 20 22 22 21 20 21 23 26 29 30 31 32 31 31 30 31 31 32 31 30 29 28 27 28 28 27 25 26 27 27 26 25 23 22 21 20 19 18 19 19 17 15 12 11 11 14 14 12 10 11 13 14 13 11 10 10 10 10 9 9 9 9 8 8 7 7 7 7 8 9 10 10 11 12 13 14 14 14
15 16 18 18 18 20 20 18 17 19 21 21 20 20 22 26 29 30 30 30 30 31 31 30 30 31 31 30 28 27 26 26 26 26 26 26 27 29 28 27 25 23 22 22 21 21 21 21 20 19 17 16 15 13 13 14 14 12 11 12 14 15 13 11 11 12 11 10 10 10 10 10 9 9 9 9 8 9 10 11 11 11 11 12 13 14 14
16 17 18 18 18 18 19 19 19 19 20 20 19 21 25 28 28 28 28 28 29 30 29 28 27 28 29 28 26 25 25 25 25 25 25 26 28 30 30 27 24 23 23 21 21 22 23 23 21 19 18 18 18 16 15 15 16 16 14 13 14 15 15 14 13 13 13 13 12 11 11 12 12 11 10 10 10 10 11 12 12 11 11 11 12 13 13
16 17 17 17 18 18 18 19 20 19 18 19 20 23 27 28 28 27 28 28 29 29 28 26 27 28 28 26 25 25 25 25 25 25 25 24 26 29 28 25 23 23 23 22 22 23 24 23 21 20 19 19 18 18 17 17 17 18 17 15 14 15 16 16 16 16 15 15 14 13 13 13 13 13 13 12 12 12 13 13 13 12 11 11 11 12 12
17 17 16 16 17 18 19 20 21 20 20 21 24 26 28 28 27 27 27 27 26 26 26 27 28 28 27 26 25 25 25 25 26 25 25 25 26 27 27 24 22 22 23 24 24 25 24 23 21 20 20 19 18 18 18 18 18 18 19 18 17 16 16 16 17 18 18 17 16 16 15 15 15 15 15 14 14 14 14 13 13 12 11 11 11 11 11
18 18 17 16 17 18 19 21 21 20 21 24 27 28 28 27 25 25 25 25 25 25 25 26 26 26 25 26 25 23 22 23 23 24 25 26 27 26 25 23 22 22 22 25 27 26 25 23 22 21 20 18 17 17 18 18 17 18 19 20 20 19 18 17 17 20 21 20 19 18 18 17 16 16 16 16 16 16 15 14 14 13 12 11 11 11 11
20 19 19 19 20 20 20 22 22 22 25 28 30 30 28 26 24 23 24 24 24 24 24 24 24 24 24 24 24 23 22 23 23 23 24 24 24 22 21 21 22 22 23 25 28 28 26 24 22 22 21 19 18 18 19 19 18 18 19 20 21 21 21 19 19 20 22 23 22 21 20 19 18 17 17 17 17 17 16 16 15 14 13 12 11 11 11
21 21 21 22 22 22 23 24 26 27 30 31 30 29 28 26 23 22 23 24 24 23 23 23 23 23 23 22 23 24 24 24 25 25 25 24 23 22 21 21 22 23 24 27 28 29 28 25 23 22 22 21 20 20 21 21 20 19 19 19 20 21 22 22 21 21 23 24 24 23 21 20 18 17 16 17 17 17 17 17 17 15 14 12 12 12 13
22 22 22 23 24 25 27 29 29 30 32 31 29 27 27 25 23 23 23 23 24 25 25 24 23 23 23 23 23 23 23 23 23 23 23 24 24 24 23 21 20 21 24 28 30 29 28 25 23 22 22 23 23 23 23 22 21 20 20 20 21 21 22 23 23 23 23 25 25 24 23 21 18 16 16 16 17 18 19 19 18 16 14 13 13 13 14
23 22 23 25 26 28 30 31 31 31 31 29 27 25 25 25 25 25 25 24 25 26 26 26 25 24 24 24 24 23 23 22 20 16 15 17 19 19 18 17 17 19 22 27 29 29 27 25 24 24 25 25 26 25 25 23 22 21 21 21 22 23 23 24 25 25 24 24 24 23 23 22 19 17 16 17 18 19 19 19 18 16 15 15 15 15 16
24 24 26 28 30 31 31 31 31 31 31 29 26 24 24 26 27 27 26 25 25 26 27 27 26 25 25 25 25 24 23 23 19 15 12 13 15 14 13 13 15 18 22 26 28 28 27 26 26 26 26 26 26 26 25 24 23 22 22 23 24 24 25 25 26 26 24 23 22 23 23 22 20 18 18 19 19 19 18 17 17 16 16 17 17 17 18
26 27 28 31 32 32 31 30 30 30 29 28 25 24 25 26 26 25 24 25 26 28 28 27 25 25 25 26 26 24 23 23 21 18 16 16 16 16 15 15 16 19 22 24 25 26 27 27 27 26 25 25 25 25 25 24 23 23 23 24 25 26 27 27 27 27 26 24 23 23 24 22 21 20 20 21 20 19 17 17 18 18 19 19 20 20 20
27 28 28 30 31 31 30 29 29 28 27 26 26 26 27 27 26 25 24 25 25 27 27 27 25 24 24 26 26 25 24 24 22 20 18 18 19 18 18 17 18 20 21 23 23 24 26 27 27 26 26 25 25 25 26 25 24 24 24 24 25 26 26 26 26 27 27 26 25 24 24 24 23 23 22 21 20 19 19 19 20 21 21 22 21 21 20
Wind_Direction
314 335 291 250 125 124 118 114 137 161 164 163 159 173 183 155 158 205 183 171 169 174 177 173 167 160 152 150 151 149 147 146 146 145 145 146 148 149 149 149 148 147 145 143 140 136 133 129 126 124 120 113 106 102 102 106 108 109 109 104 95 87 82 82 83 84 84 82 79 77 72 69 66 62 59 56 53 51 47 43 40 36 32 28 24 22 20
339 349 327 297 123 101 51 52 49 65 154 168 147 138 152 141 136 172 165 167 173 171 172 163 150 147 143 143 148 150 149 148 148 148 148 149 151 152 151 150 150 149 147 145 143 139 136 133 130 129 125 117 110 105 103 104 105 107 110 107 99 92 87 84 84 85 85 84 81 78 74 71 68 65 62 59 55 52 49 45 42 38 34 30 26 23 19
331 343 348 354 119 115 91 62 30 41 86 95 89 118 130 103 79 116 138 136 94 126 137 132 136 142 143 145 151 152 151 150 150 151 151 152 153 153 153 152 151 151 149 147 146 143 140 138 136 134 131 123 114 107 101 99 102 108 111 107 100 95 92 89 87 85 84 82 81 78 75 73 70 67 63 59 56 53 50 47 43 39 36 33 29 25 21
305 324 360 345 74 99 95 60 15 18 84 117 134 165 168 135 123 121 126 139 170 153 136 133 140 145 147 151 154 153 154 157 156 156 155 155 155 154 153 152 152 151 150 148 147 145 144 145 142 139 136 129 119 110 101 97 101 108 110 107 102 99 95 91 89 86 83 81 79 77 75 72 69 66 62 59 55 51 48 45 41 38 35 31 28 24 21
260 278 316 310 4 89 100 346 348 287 186 142 143 54 80 140 134 136 158 180 165 150 144 143 149 155 158 159 159 156 157 160 160 160 158 157 156 155 153 153 153 152 150 148 146 145 146 149 147 142 138 132 122 113 102 97 102 108 110 109 104 100 94 89 87 85 82 80 78 75 73 69 66 63 59 55 51 47 44 41 37 34 31 27 25 23 20
202 245 288 332 8 159 223 285 235 211 199 141 127 98 94 120 125 134 138 137 143 151 156 158 160 164 164 162 161 161 162 164 164 162 159 157 157 155 154 154 153 152 149 146 144 142 143 147 149 146 140 132 124 116 104 97 104 109 110 108 103 97 91 87 84 82 81 80 78 75 72 67 63 59 55 51 48 44 40 37 34 31 28 25 23 22 21
171 234 37 110 201 230 272 321 290 199 154 118 100 67 32 12 25 110 119 134 152 156 156 155 153 154 156 158 162 165 166 167 165 161 159 159 158 157 156 154 152 151 150 146 144 144 144 147 149 147 141 133 127 119 106 100 107 110 108 106 100 94 89 85 81 79 78 77 76 73 69 65 60 57 53 50 47 42 38 36 33 30 27 24 23 23 22
144 77 66 173 237 294 338 352 358 130 122 114 103 69 348 335 342 139 133 138 148 142 139 143 143 145 148 151 160 167 169 169 165 161 160 160 159 158 158 156 153 151 150 148 148 150 149 149 148 145 140 134 129 123 110 104 109 111 108 105 99 93 89 85 79 76 74 73 72 69 65 62 59 56 53 50 47 43 40 38 35 31 28 26 25 24 23
127 110 106 273 327 329 322 313 238 180 159 152 141 135 258 289 302 157 140 137 141 137 136 139 140 141 139 135 153 168 170 168 164 161 159 158 157 157 158 157 153 151 150 149 151 153 152 150 149 145 139 133 131 127 116 108 111 113 110 105 99 94 90 86 80 74 70 69 68 66 63 60 57 55 52 49 47 45 42 40 36 32 29 27 26 24 23
116 109 97 58 20 282 245 224 223 219 196 172 147 119 217 258 237 165 148 142 144 141 138 140 139 138 137 138 166 169 168 165 162 159 158 158 159 158 157 156 153 152 153 151 151 152 150 149 148 145 140 135 133 130 122 113 114 117 113 105 98 94 92 88 81 74 68 65 64 62 59 57 54 51 49 48 46 46 43 39 35 32 29 27 25 24 23
132 118 130 168 187 243 233 208 207 205 190 174 130 80 265 228 179 163 155 147 151 151 148 148 146 145 156 180 173 165 164 163 161 158 156 157 159 158 158 157 156 156 155 154 154 153 151 148 146 145 143 138 134 132 126 119 117 120 117 107 98 95 94 90 83 74 68 63 59 55 52 51 50 48 46 46 45 44 41 37 34 31 28 27 25 24 23
157 129 140 200 219 253 237 197 180 186 184 155 102 59 252 195 167 167 164 157 158 158 155 156 158 166 180 174 166 164 163 162 161 159 156 156 158 158 160 160 158 158 158 157 156 156 154 150 149 149 148 142 136 135 132 125 119 120 122 113 103 98 96 93 85 74 66 60 55 51 48 46 46 45 43 43 43 41 38 35 33 30 28 26 25 24 23
146 132 141 236 249 251 240 176 164 167 161 132 141 230 217 170 165 170 168 163 162 161 161 165 168 172 169 161 158 160 161 160 159 158 156 156 157 157 158 158 158 158 159 158 155 155 155 154 156 157 153 145 142 142 139 131 120 119 125 123 113 103 97 95 88 76 66 57 51 48 44 41 41 42 41 40 39 37 34 32 31 29 26 25 24 24 23
139 137 123 156 267 248 176 143 158 160 147 179 221 222 167 162 164 168 169 167 165 164 167 170 161 138 149 155 154 156 159 158 156 156 156 156 155 154 155 156 157 156 156 156 154 154 156 159 160 159 152 146 146 147 145 139 127 121 123 126 124 113 100 95 90 79 67 57 49 46 41 36 36 37 38 37 36 34 32 30 29 27 25 23 22 22 22
122 66 76 118 263 212 147 132 144 177 180 204 186 133 149 163 165 164 168 171 169 166 167 165 152 144 148 153 154 155 158 157 156 157 158 157 156 157 156 157 159 158 157 156 154 153 157 159 158 155 150 145 145 145 144 142 136 127 123 123 126 123 107 95 91 83 70 58 49 44 38 32 31 33 34 34 34 33 31 30 29 27 24 22 21 20 20
131 104 174 182 254 223 166 149 162 196 177 172 147 137 147 162 166 165 167 170 171 170 165 156 149 148 150 153 155 156 156 157 157 158 159 158 158 159 159 159 162 163 160 156 152 152 156 157 157 156 152 148 147 147 144 144 142 137 130 125 126 126 113 98 93 86 72 59 48 41 36 32 29 30 31 32 32 32 30 29 28 27 25 23 21 20 19
156 173 215 221 285 267 208 223 294 161 157 143 150 155 158 163 169 171 167 167 171 171 164 154 149 151 153 154 156 156 156 156 158 159 159 159 159 160 160 161 163 163 159 155 153 153 156 160 161 159 155 151 149 147 144 144 148 146 140 132 128 125 116 102 94 85 70 58 48 40 37 32 29 30 30 30 31 31 30 29 27 27 26 23 21 19 18
208 195 247 262 353 14 192 204 150 153 160 157 157 168 168 168 171 174 170 169 169 168 162 155 150 152 154 155 156 157 156 157 159 159 158 158 159 160 160 160 160 159 155 153 153 153 156 162 163 161 158 154 149 146 146 150 155 156 150 141 131 124 115 103 94 84 64 52 47 42 38 33 31 30 29 28 29 29 29 29 27 26 24 22 20 18 16
183 245 326 343 33 86 139 149 148 151 158 161 168 178 176 171 171 173 171 169 167 164 162 157 152 153 155 155 156 157 157 158 159 159 158 159 159 159 158 158 158 157 154 153 154 152 151 155 159 160 160 155 149 148 150 153 157 160 156 144 131 121 113 100 92 84 63 50 47 42 39 35 32 30 28 26 26 27 27 28 27 25 23 21 18 16 15
166 246 291 71 89 107 132 148 161 164 162 166 172 177 175 171 169 170 170 168 164 162 161 159 155 154 157 158 157 157 158 159 161 162 161 162 160 158 157 157 158 158 157 156 156 152 149 151 156 159 158 155 152 155 158 160 163 166 162 152 140 128 118 107 95 81 63 55 49 41 38 37 33 30 27 23 22 24 25 26 25 23 22 20 18 16 14
65 269 199 129 101 73 151 167 172 173 170 168 169 170 170 168 166 166 166 166 166 164 162 161 157 156 158 160 159 159 160 161 163 163 163 162 162 160 159 160 161 161 160 157 155 152 149 150 153 156 159 159 158 160 164 167 168 168 164 162 158 146 133 120 104 87 69 63 52 38 37 36 31 28 25 20 18 20 22 23 23 21 20 19 19 18 15
210 233 187 169 141 88 185 176 169 171 173 170 164 164 166 166 166 164 162 161 164 166 165 164 161 159 160 161 161 161 162 162 163 163 162 163 164 164 163 164 163 159 157 156 155 154 152 150 150 152 157 161 163 166 170 173 176 176 169 162 154 148 142 126 104 89 78 75 59 35 31 32 27 23 22 18 17 19 21 22 22 21 19 18 17 17 15
228 206 180 170 124 98 156 165 165 169 173 171 166 165 166 166 166 166 163 160 161 163 165 167 167 163 162 163 163 162 163 164 165 165 165 165 166 167 167 167 163 159 158 159 160 159 156 154 153 152 154 157 160 162 159 156 161 175 183 182 170 156 149 129 105 98 94 84 55 28 27 27 21 19 22 22 21 22 22 20 20 21 21 19 17 15 13
32 178 175 174 134 130 159 164 165 168 172 172 167 164 165 165 165 166 166 164 163 163 163 166 169 168 165 166 166 166 166 167 167 167 167 168 169 169 169 168 165 162 161 161 162 162 160 159 157 156 155 155 156 153 147 140 138 146 167 188 191 180 159 133 118 122 115 78 51 32 27 22 17 22 31 31 28 26 23 19 19 22 22 21 19 16 12
121 165 171 177 167 151 155 158 162 166 172 174 169 165 166 166 165 165 166 165 165 166 165 165 168 170 168 168 170 170 169 168 168 168 169 170 171 170 169 169 168 166 164 164 164 164 164 163 162 160 158 158 158 157 156 151 144 134 128 146 175 181 168 143 137 137 106 75 62 40 27 23 26 38 43 37 32 29 25 20 20 22 22 21 20 17 13
166 161 158 150 144 149 152 154 158 165 174 177 170 166 167 167 165 166 166 166 166 167 166 165 166 168 169 169 171 171 168 165 167 170 170 169 170 170 169 170 171 170 170 171 171 168 166 166 167 167 165 165 166 166 163 156 145 130 107 109 148 175 174 164 158 137 91 72 61 40 35 44 53 55 48 38 33 30 26 22 22 22 20 20 20 18 14
163 162 151 132 133 152 160 161 161 167 175 176 170 166 166 166 165 165 165 165 166 166 166 167 167 167 169 170 170 169 167 166 169 173 172 170 171 170 170 170 170 170 173 175 174 170 167 168 173 176 173 169 170 171 168 159 147 133 106 99 130 160 170 170 161 127 92 76 58 43 46 56 55 47 38 32 30 28 25 23 22 21 19 19 19 18 15
159 164 159 143 157 168 170 167 165 167 170 171 169 167 165 165 164 163 161 160 162 164 166 169 170 170 170 169 168 169 169 170 172 173 172 171 170 169 170 170 168 169 173 175 174 172 171 173 180 184 179 173 173 173 171 167 161 148 114 96 121 150 161 161 147 116 99 84 57 42 40 40 35 29 25 19 16 19 22 21 20 18 18 19 18 17 14
158 164 166 166 169 169 167 164 165 166 167 168 169 167 166 163 161 160 159 159 161 164 165 168 170 170 169 169 170 171 171 172 173 173 172 170 169 170 172 172 169 170 173 174 175 178 180 183 189 190 183 178 179 180 179 177 177 174 145 107 121 143 151 144 123 104 101 96 58 36 33 34 28 21 15 6 0 4 13 17 17 15 16 18 19 17 15
163 169 169 160 163 166 166 164 164 166 166 167 166 166 166 163 159 158 159 161 164 166 166 166 168 168 168 170 171 171 171 172 173 173 172 171 172 174 175 172 170 171 173 174 174 178 184 189 195 196 191 186 185 188 190 189 189 190 182 147 132 141 147 143 120 92 87 112 65 31 31 39 29 14 5 357 349 349 1 11 14 12 13 16 18 17 15
165 166 161 158 162 166 166 164 165 166 166 166 165 164 165 164 160 159 162 165 166 167 167 168 168 169 169 170 172 172 172 173 173 173 174 175 177 178 179 177 176 175 176 176 172 172 180 188 193 196 198 197 197 199 201 200 197 195 190 178 161 157 159 158 137 82 48 172 66 27 34 57 24 8 3 355 345 341 352 6 11 10 10 14 17 16 15
155 150 153 157 161 165 165 165 166 165 164 165 166 165 165 166 165 164 166 169 169 169 169 170 172 172 172 172 174 175 175 175 176 176 176 177 180 183 185 186 185 181 179 176 172 171 178 185 189 194 199 201 203 206 207 208 207 200 192 188 183 180 181 184 181 354 312 217 192 29 74 193 325 346 353 354 347 340 349 4 9 8 7 11 14 14 14
151 148 154 161 162 163 164 167 167 166 166 168 169 167 167 170 170 169 169 170 171 170 169 171 173 176 177 177 178 179 179 178 177 177 179 181 184 186 187 188 188 185 182 179 177 178 182 185 190 196 199 197 199 204 207 211 213 209 203 202 202 199 200 206 216 263 284 239 231 187 195 233 300 320 333 345 347 342 352 6 10 6 3 4 8 11 14
177 178 179 177 175 172 170 169 168 166 166 168 169 169 171 173 172 171 170 171 170 170 170 172 175 177 179 181 182 183 183 181 180 181 184 185 184 184 185 186 186 186 184 183 184 186 188 190 195 199 197 191 192 199 206 212 216 216 215 216 215 214 216 220 225 245 271 265 241 212 218 255 307 322 330 343 349 350 2 12 12 3 357 358 2 7 13
203 199 186 180 180 177 170 167 167 167 167 168 170 172 174 174 173 171 171 171 171 171 172 174 177 179 182 184 185 186 186 186 185 185 184 182 182 183 184 184 183 184 186 189 193 195 197 200 207 209 201 193 191 197 205 212 218 223 225 222 218 219 221 222 225 237 262 266 234 219 237 273 303 321 334 345 352 359 9 15 12 3 356 354 356 3 10
202 193 180 177 178 176 170 168 170 172 171 169 169 172 175 176 173 171 172 173 175 177 178 178 179 181 183 185 186 185 185 186 185 183 180 180 182 184 183 182 183 186 190 194 197 198 200 204 209 212 207 201 197 199 203 209 218 226 227 221 217 218 218 218 222 233 253 254 231 229 250 278 295 313 329 337 346 357 4 9 9 4 0 358 359 2 7
204 198 184 178 179 179 177 176 177 176 173 171 170 172 173 174 174 174 177 180 182 183 182 181 181 183 185 186 185 184 183 183 181 180 180 183 184 184 184 185 189 193 197 198 199 200 202 204 204 201 202 205 204 201 199 203 213 220 219 215 216 220 222 221 225 232 248 258 246 242 252 271 288 311 326 330 329 338 350 358 2 3 3 5 8 8 6
202 200 189 183 183 183 180 178 179 180 176 174 175 175 173 175 179 182 186 188 186 184 183 183 185 186 187 186 185 185 185 184 183 184 186 188 188 189 191 194 196 200 204 204 204 207 207 205 204 202 200 201 202 201 202 207 214 215 214 214 218 223 226 227 228 233 246 260 255 248 250 261 277 301 324 330 326 329 338 346 352 356 0 5 10 11 7
198 195 190 186 186 185 180 175 176 181 180 178 179 179 179 182 187 188 188 187 185 184 184 186 187 187 187 186 187 189 188 187 187 190 193 195 196 196 198 199 202 206 209 209 212 215 212 206 207 211 211 207 203 202 204 209 215 219 220 222 223 226 230 233 233 234 241 252 253 247 248 260 277 297 316 324 323 325 330 335 340 346 353 0 5 7 7
196 193 190 186 185 185 183 175 172 178 181 179 178 180 183 185 185 184 183 183 184 186 188 188 188 189 190 190 191 191 190 190 192 197 201 204 204 202 203 205 207 209 210 211 215 218 214 208 211 217 220 221 220 215 210 210 214 222 229 229 227 228 232 236 237 236 239 246 249 247 250 260 275 293 307 312 314 316 319 325 331 336 344 354 360 1 1
195 193 193 190 186 186 187 183 177 178 180 181 183 186 186 183 181 180 181 183 185 187 190 191 191 192 193 193 193 193 192 194 198 204 208 211 208 205 206 209 210 210 210 213 217 219 217 215 217 221 225 228 232 234 229 224 222 225 232 234 231 230 233 239 242 242 241 243 247 251 256 262 270 284 295 300 301 303 306 313 321 326 333 344 351 353 355
194 193 194 193 189 186 185 184 181 179 180 185 191 191 187 184 184 185 186 187 188 189 192 196 198 196 194 193 194 196 197 200 204 209 214 216 213 210 211 214 215 215 218 221 221 219 218 218 220 223 225 228 232 238 242 240 234 230 233 237 236 236 240 245 247 245 242 241 244 252 258 260 264 274 284 286 287 290 296 302 309 316 324 333 340 345 349
195 196 196 197 195 192 187 184 183 183 186 191 194 191 187 186 188 188 188 189 191 193 195 197 197 195 194 195 197 199 201 205 209 213 217 219 218 217 220 223 222 222 224 224 222 217 216 219 223 225 226 227 231 236 243 246 242 237 236 237 238 241 247 250 248 245 245 243 242 246 252 257 262 270 277 280 280 283 288 294 301 307 314 322 329 337 343
197 199 200 199 196 193 190 188 189 192 195 195 193 190 188 187 189 191 191 192 193 194 194 193 193 194 197 201 202 204 206 210 213 216 218 219 220 222 225 227 228 227 226 223 219 215 216 221 225 224 223 225 229 234 241 247 246 242 240 239 238 241 249 251 246 243 245 247 244 244 247 253 260 266 270 273 275 278 282 287 292 299 306 312 319 328 335
200 203 204 201 197 196 197 198 200 203 201 195 190 190 191 191 192 194 196 195 194 194 194 195 197 200 203 206 209 212 215 217 218 219 219 221 223 225 226 226 227 226 224 222 219 217 218 221 222 219 219 224 229 235 242 247 248 245 243 242 241 242 249 254 250 245 245 246 247 247 247 251 257 262 265 266 270 275 278 280 284 291 298 304 309 318 326
204 205 205 204 204 205 206 205 203 202 197 191 188 190 193 194 194 196 197 197 198 199 199 201 204 207 211 214 217 220 223 224 225 227 228 230 232 234 232 231 229 225 221 220 221 220 219 220 220 219 221 225 231 237 244 250 250 247 246 246 245 246 250 256 259 254 249 247 248 249 250 253 259 264 264 265 269 273 274 275 279 284 289 294 300 308 316
207 210 210 210 210 208 204 199 195 193 193 192 191 193 195 196 198 200 201 202 204 205 205 207 211 215 217 220 222 224 226 227 229 231 234 237 241 242 241 238 234 228 222 220 222 222 222 224 226 228 228 229 233 238 245 249 251 250 249 249 250 251 253 257 263 263 257 250 247 248 250 254 259 263 265 266 268 270 272 275 278 279 281 284 290 299 307
213 217 217 216 215 210 203 197 194 193 194 195 196 197 198 200 202 204 205 206 209 210 210 212 216 219 222 224 226 228 228 229 230 234 236 238 240 242 241 239 237 233 226 223 223 225 226 228 232 234 234 236 238 241 244 247 249 251 252 253 254 255 256 258 264 268 264 254 248 248 250 253 257 261 265 267 269 270 273 275 275 273 272 277 284 292 301
217 219 220 218 214 207 201 199 199 199 198 197 198 201 203 204 206 207 208 211 214 215 216 218 221 223 226 228 228 227 227 227 232 239 242 235 231 233 233 232 232 231 227 225 226 228 228 229 232 236 240 242 244 243 243 246 250 253 255 256 256 258 259 262 267 270 264 254 248 249 251 253 256 261 265 269 273 275 275 274 271 268 269 274 280 288 294
217 219 219 214 206 200 199 201 202 202 200 199 201 205 207 207 207 209 212 214 218 220 222 224 226 229 231 229 226 224 223 225 228 233 233 226 222 224 228 229 227 226 225 226 227 228 228 230 234 238 242 243 242 241 241 245 250 255 258 258 259 259 261 265 268 266 258 248 245 249 252 254 257 262 266 271 277 278 275 270 268 268 269 272 277 284 289
217 215 212 207 203 203 206 209 207 205 203 204 206 209 211 211 211 215 218 219 221 223 225 228 231 233 231 228 225 223 223 225 226 228 228 226 225 227 232 234 231 229 229 229 229 230 230 232 235 239 243 245 244 242 242 246 252 258 260 261 261 261 262 264 265 261 253 245 245 249 253 255 258 262 267 274 279 278 272 267 266 267 268 272 276 281 284
213 209 206 206 208 210 213 214 212 209 209 210 211 212 211 211 214 219 222 222 224 226 228 231 233 231 227 225 226 226 225 225 227 229 230 230 228 230 233 235 234 233 233 233 234 235 236 237 240 245 248 250 249 246 245 248 254 259 260 261 262 263 262 262 261 257 251 246 245 248 252 255 259 264 271 277 278 273 267 265 267 268 271 274 277 280 283